FW6908 Weather Reports


time (UTC)temp
F
wind
direction
speed
knots
gust
knots
rain 1hr
in
rain 24hr
in
rain mn
in
humidity
%
barometer
mb
20260903160027 86 45 11.3 23.5 0.00 0.00 0.00 41 1013.2
20260903155527 87 52 7.8 19.1 0.00 0.00 0.00 41 1013.2
20260903155027 87 28 8.7 19.1 0.00 0.00 0.00 41 1013.1
20260903154527 87 84 9.6 21.7 0.00 0.00 0.00 41 1013.2
20260903154025 87 49 13.9 21.7 0.00 0.00 0.00 41 1013.1
20260903153527 87 63 11.3 20.0 0.00 0.00 0.00 41 1013.0
20260903153025 87 51 8.7 20.9 0.00 0.00 0.00 40 1013.1
20260903152525 87 81 10.4 20.9 0.00 0.00 0.00 40 1013.1
20260903152025 87 76 7.8 20.9 0.00 0.00 0.00 42 1013.2
20260903151529 87 53 7.8 19.1 0.00 0.00 0.00 42 1013.2
20260903151025 87 72 9.6 20.9 0.00 0.00 0.00 43 1013.2
20260903150525 87 49 12.2 20.9 0.00 0.00 0.00 42 1013.3
20260903150024 87 71 11.3 20.9 0.00 0.00 0.00 43 1013.2
20260903145524 87 86 12.2 20.9 0.00 0.00 0.00 43 1013.3
20260903145022 87 81 9.6 20.0 0.00 0.00 0.00 44 1013.3
20260903144522 87 90 10.4 23.5 0.00 0.00 0.00 43 1013.3
20260903144023 87 94 10.4 23.5 0.00 0.00 0.00 44 1013.1
20260903143520 88 23 10.4 19.1 0.00 0.00 0.00 45 1013.1
20260903143020 88 74 9.6 18.2 0.00 0.00 0.00 45 1013.2
20260903142520 89 74 10.4 17.4 0.00 0.00 0.00 43 1013.2
20260903142018 89 38 8.7 19.1 0.00 0.00 0.00 43 1013.2
20260903141518 89 50 11.3 18.2 0.00 0.00 0.00 43 1013.1
20260903141017 90 47 13.9 17.4 0.00 0.00 0.00 42 1013.2
20260903140516 90 61 6.1 19.1 0.00 0.00 0.00 42 1013.2
20260903140030 90 71 9.6 19.1 0.00 0.00 0.00 42 1013.0
20260903135514 90 43 11.3 19.1 0.00 0.00 0.00 42 1013.0
20260903135013 90 24 10.4 19.1 0.00 0.00 0.00 41 1012.8
20260903134518 91 88 11.3 19.1 0.00 0.00 0.00 41 1012.8
20260903134017 91 101 10.4 19.1 0.00 0.00 0.00 41 1012.7
20260903133512 91 59 7.8 18.2 0.00 0.00 0.00 41 1012.7
20260903133012 91 88 9.6 18.2 0.00 0.00 0.00 40 1012.7
20260903132512 90 48 9.6 18.2 0.00 0.00 0.00 41 1012.9
20260903132015 90 99 10.4 18.2 0.00 0.00 0.00 40 1012.9
20260903131512 91 66 8.7 18.2 0.00 0.00 0.00 40 1012.9
20260903131011 91 80 9.6 18.2 0.00 0.00 0.00 40 1012.8
20260903130514 90 60 10.4 16.5 0.00 0.00 0.00 40 1012.9
20260903130130 91 48 9.6 16.5 0.00 0.00 0.00 39 1013.0
20260903125509 90 112 7.8 22.6 0.00 0.00 0.00 41 1013.2
20260903125009 90 69 14.8 22.6 0.00 0.00 0.00 40 1013.3
20260903124509 91 90 8.7 18.2 0.00 0.00 0.00 40 1013.2
20260903124008 91 88 7.8 17.4 0.00 0.00 0.00 40 1013.1
20260903123508 91 23 9.6 19.1 0.00 0.00 0.00 39 1013.2
20260903123014 91 94 7.8 19.1 0.00 0.00 0.00 40 1013.2
20260903122508 91 101 10.4 18.2 0.00 0.00 0.00 40 1013.2
20260903122008 91 79 11.3 20.9 0.00 0.00 0.00 41 1013.2
20260903121508 90 59 11.3 20.0 0.00 0.00 0.00 41 1013.2
20260903121009 90 71 9.6 18.2 0.00 0.00 0.00 41 1013.2
20260903120506 91 90 12.2 20.0 0.00 0.00 0.00 41 1013.2
20260903120006 91 74 14.8 20.0 0.00 0.00 0.00 40 1013.2
20260903115505 91 13 10.4 19.1 0.00 0.00 0.00 41 1013.3
20260903115005 91 80 12.2 19.1 0.00 0.00 0.00 41 1013.3
20260903114508 90 61 11.3 18.2 0.00 0.00 0.00 42 1013.4
20260903114005 91 69 8.7 19.1 0.00 0.00 0.00 42 1013.4
20260903113504 91 97 9.6 20.0 0.00 0.00 0.00 42 1013.4
20260903113004 90 119 10.4 18.2 0.00 0.00 0.00 42 1013.3
20260903112504 90 86 10.4 17.4 0.00 0.00 0.00 42 1013.4
20260903112004 90 92 9.6 17.4 0.00 0.00 0.00 42 1013.4
20260903111504 90 119 8.7 20.0 0.00 0.00 0.00 43 1013.5
20260903111003 90 22 8.7 20.0 0.00 0.00 0.00 43 1013.4
20260903110503 90 98 8.7 20.0 0.00 0.00 0.00 43 1013.5
20260903110002 90 93 11.3 20.0 0.00 0.00 0.00 43 1013.5
20260903105502 91 80 4.3 15.6 0.00 0.00 0.00 43 1013.5
20260903105102 90 42 9.6 16.5 0.00 0.00 0.00 43 1013.5
20260903104500 90 117 6.1 21.7 0.00 0.00 0.00 44 1013.7
20260903104102 90 86 9.6 21.7 0.00 0.00 0.00 44 1013.6
20260903103602 90 109 8.7 20.9 0.00 0.00 0.00 43 1013.6
20260903103100 90 121 9.6 20.9 0.00 0.00 0.00 43 1013.6
20260903102558 91 83 7.0 14.8 0.00 0.00 0.00 43 1013.6
20260903102059 91 84 7.0 18.2 0.00 0.00 0.00 43 1013.7
20260903101602 91 81 11.3 18.2 0.00 0.00 0.00 42 1013.7
20260903101057 91 40 9.6 14.8 0.00 0.00 0.00 41 1013.7
20260903100556 92 105 5.2 11.3 0.00 0.00 0.00 41 1013.7
20260903100055 91 74 4.3 13.0 0.00 0.00 0.00 42 1013.7
20260903095553 91 39 6.1 18.2 0.00 0.00 0.00 42 1013.9
20260903095054 90 60 8.7 18.2 0.00 0.00 0.00 42 1014.0
20260903094604 90 26 6.1 16.5 0.00 0.00 0.00 42 1014.0
20260903094049 90 40 11.3 20.0 0.00 0.00 0.00 43 1014.1
20260903093548 90 40 13.0 18.2 0.00 0.00 0.00 42 1014.1
20260903093049 89 69 11.3 18.2 0.00 0.00 0.00 43 1014.1
20260903092546 89 96 10.4 17.4 0.00 0.00 0.00 42 1014.0
20260903092045 89 35 8.7 20.0 0.00 0.00 0.00 43 1014.1
20260903091543 89 24 13.9 20.0 0.00 0.00 0.00 43 1014.1
20260903091043 89 45 8.7 20.9 0.00 0.00 0.00 43 1014.1
20260903090542 89 118 8.7 20.9 0.00 0.00 0.00 42 1014.1
20260903090054 89 113 6.1 20.9 0.00 0.00 0.00 43 1014.2
20260903085540 89 70 10.4 22.6 0.00 0.00 0.00 44 1014.2
20260903085039 89 92 13.0 22.6 0.00 0.00 0.00 43 1014.3
20260903084538 88 67 11.3 19.1 0.00 0.00 0.00 43 1014.5
20260903084038 88 90 11.3 21.7 0.00 0.00 0.00 43 1014.5
20260903083538 87 74 13.0 21.7 0.00 0.00 0.00 43 1014.5
20260903083053 88 87 11.3 19.1 0.00 0.00 0.00 42 1014.4
20260903082536 88 71 13.0 19.1 0.00 0.00 0.00 41 1014.3
20260903082035 88 65 5.2 16.5 0.00 0.00 0.00 42 1014.5
20260903081535 88 95 8.7 16.5 0.00 0.00 0.00 42 1014.4
20260903081034 88 82 8.7 18.2 0.00 0.00 0.00 42 1014.4
20260903080536 88 61 7.8 18.2 0.00 0.00 0.00 41 1014.4
20260903080033 88 39 5.2 20.9 0.00 0.00 0.00 41 1014.4
20260903075531 87 355 13.0 20.9 0.00 0.00 0.00 41 1014.3
20260903075031 87 55 12.2 22.6 0.00 0.00 0.00 41 1014.4
20260903074531 87 21 14.8 22.6 0.00 0.00 0.00 41 1014.5
20260903074030 87 31 10.4 18.2 0.00 0.00 0.00 40 1014.4
20260903073528 86 38 6.1 21.7 0.00 0.00 0.00 42 1014.5
20260903073027 86 49 8.7 21.7 0.00 0.00 0.00 44 1014.6
20260903072525 85 58 10.4 14.8 0.00 0.00 0.00 46 1014.6
20260903072028 84 132 6.1 17.4 0.00 0.00 0.00 48 1014.5
20260903071524 84 94 7.8 17.4 0.00 0.00 0.00 50 1014.5
20260903071023 83 107 7.0 13.0 0.00 0.00 0.00 51 1014.5
20260903070523 83 103 6.1 12.2 0.00 0.00 0.00 51 1014.5
20260903070023 83 104 6.1 12.2 0.00 0.00 0.00 51 1014.5
20260903065523 84 100 2.6 11.3 0.00 0.00 0.00 51 1014.5
20260903065020 84 145 7.0 11.3 0.00 0.00 0.00 51 1014.4
20260903064519 84 107 6.1 10.4 0.00 0.00 0.00 51 1014.4
20260903064017 83 136 4.3 12.2 0.00 0.00 0.00 51 1014.5
20260903063516 83 45 8.7 12.2 0.00 0.00 0.00 51 1014.4
20260903063026 83 102 5.2 12.2 0.00 0.00 0.00 52 1014.5
20260903062513 83 85 6.1 15.6 0.00 0.00 0.00 53 1014.5
20260903062015 82 138 2.6 15.6 0.00 0.00 0.00 54 1014.5
20260903061512 82 114 2.6 11.3 0.00 0.00 0.00 54 1014.4
20260903061012 82 99 4.3 11.3 0.00 0.00 0.00 54 1014.4
20260903060508 82 82 7.0 12.2 0.00 0.00 0.00 55 1014.4
20260903060022 81 105 5.2 13.9 0.00 0.00 0.00 55 1014.3
20260903055509 81 45 7.0 13.9 0.00 0.00 0.00 56 1014.3
20260903055004 80 74 7.0 13.9 0.00 0.00 0.00 57 1014.2
20260903054504 80 140 7.8 13.9 0.00 0.00 0.00 57 1014.3
20260903054003 80 96 7.8 14.8 0.00 0.00 0.00 57 1014.2
20260903053502 80 89 6.1 14.8 0.00 0.00 0.00 57 1014.4
20260903053002 80 74 8.7 14.8 0.00 0.00 0.00 57 1014.4
20260903052503 80 80 6.1 15.6 0.00 0.00 0.00 57 1014.5
20260903052100 80 109 8.7 15.6 0.00 0.00 0.00 57 1014.5
20260903051607 80 90 8.7 15.6 0.00 0.00 0.00 56 1014.6
20260903051057 80 98 6.1 13.0 0.00 0.00 0.00 55 1014.6
20260903050559 80 113 5.2 13.9 0.00 0.00 0.00 55 1014.5
20260903050054 80 92 7.8 13.9 0.00 0.00 0.00 54 1014.6
20260903045554 80 78 7.0 12.2 0.00 0.00 0.00 54 1014.5
20260903045052 80 111 6.1 11.3 0.00 0.00 0.00 53 1014.4
20260903044552 81 92 6.1 14.8 0.00 0.00 0.00 52 1014.3
20260903044050 81 109 5.2 14.8 0.00 0.00 0.00 51 1014.3
20260903043548 81 92 7.0 15.6 0.00 0.00 0.00 50 1014.4
20260903043047 81 82 10.4 15.6 0.00 0.00 0.00 50 1014.2
20260903042546 81 123 5.2 13.9 0.00 0.00 0.00 50 1014.2
20260903042045 81 38 6.1 9.6 0.00 0.00 0.00 49 1014.1
20260903041544 81 109 6.1 8.7 0.00 0.00 0.00 49 1014.2
20260903041043 81 113 1.7 8.7 0.00 0.00 0.00 49 1014.2
20260903040542 81 121 5.2 8.7 0.00 0.00 0.00 48 1014.2
20260903040057 81 158 2.6 6.1 0.00 0.00 0.00 47 1014.2
20260903035540 81 152 3.5 6.1 0.00 0.00 0.00 46 1014.1
20260903035040 82 172 3.5 5.2 0.00 0.00 0.00 46 1014.0
20260903034542 82 167 2.6 6.1 0.00 0.00 0.00 45 1014.0
20260903034041 82 140 2.6 6.1 0.00 0.00 0.00 45 1014.0
20260903033539 82 123 2.6 7.0 0.00 0.00 0.00 44 1014.0
20260903033039 82 98 2.6 7.0 0.00 0.00 0.00 44 1014.0
20260903032539 82 111 2.6 6.1 0.00 0.00 0.00 44 1014.0
20260903032038 82 69 3.5 7.8 0.00 0.00 0.00 44 1014.1
20260903031538 82 88 3.5 7.8 0.00 0.00 0.00 44 1014.1
20260903031038 82 360 3.5 9.6 0.00 0.00 0.00 44 1014.0
20260903030538 82 67 1.7 12.2 0.00 0.00 0.00 44 1014.0
20260903030039 82 60 5.2 12.2 0.00 0.00 0.00 43 1014.0
20260903025537 82 9 3.5 9.6 0.00 0.00 0.00 43 1014.1
20260903025039 82 57 4.3 9.6 0.00 0.00 0.00 43 1014.0
20260903024537 82 57 4.3 8.7 0.00 0.00 0.00 43 1014.0
20260903024036 82 65 4.3 8.7 0.00 0.00 0.00 43 1014.1
20260903023535 82 22 2.6 10.4 0.00 0.00 0.00 43 1014.2
20260903023050 82 38 5.2 11.3 0.00 0.00 0.00 43 1014.2
20260903022536 82 49 6.1 11.3 0.00 0.00 0.00 43 1014.2
20260903022036 82 40 6.1 13.0 0.00 0.00 0.00 43 1014.1
20260903021535 82 55 6.1 13.0 0.00 0.00 0.00 43 1014.1
20260903021035 82 73 7.0 12.2 0.00 0.00 0.00 43 1014.2
20260903020534 82 22 6.1 12.2 0.00 0.00 0.00 43 1014.1
20260903020034 82 30 8.7 13.0 0.00 0.00 0.00 42 1014.1
20260903015534 82 22 6.1 13.0 0.00 0.00 0.00 43 1014.1
20260903015034 82 79 5.2 10.4 0.00 0.00 0.00 43 1014.1
20260903014544 82 75 6.1 10.4 0.00 0.00 0.00 43 1014.1
20260903014034 81 43 2.6 9.6 0.00 0.00 0.00 43 1014.1
20260903013533 81 80 2.6 10.4 0.00 0.00 0.00 43 1014.1
20260903013042 81 85 6.1 10.4 0.00 0.00 0.00 44 1014.1
20260903012532 81 128 3.5 8.7 0.00 0.00 0.00 44 1014.2
20260903012033 81 123 4.3 9.6 0.00 0.00 0.00 44 1014.1
20260903011532 81 127 3.5 9.6 0.00 0.00 0.00 44 1014.2
20260903011032 81 123 2.6 8.7 0.00 0.00 0.00 44 1014.2
20260903010532 81 98 3.5 9.6 0.00 0.00 0.00 44 1014.2
20260903010042 81 96 5.2 11.3 0.00 0.00 0.00 44 1014.2
20260903005530 81 98 7.8 11.3 0.00 0.00 0.00 44 1014.2
20260903005032 81 70 5.2 11.3 0.00 0.00 0.00 43 1014.2
20260903004530 82 78 7.0 12.2 0.00 0.00 0.00 43 1014.2
20260903004030 82 81 7.8 13.0 0.00 0.00 0.00 43 1014.3
20260903003530 82 75 7.8 13.0 0.00 0.00 0.00 43 1014.3
20260903003028 82 65 7.0 14.8 0.00 0.00 0.00 43 1014.2
20260903002531 82 55 7.0 12.2 0.00 0.00 0.00 43 1014.2
20260903002032 82 71 5.2 12.2 0.00 0.00 0.00 43 1014.2
20260903001531 82 125 7.8 12.2 0.00 0.00 0.00 43 1014.2
20260903001027 82 123 5.2 13.0 0.00 0.00 0.00 43 1014.2
20260903000527 82 109 7.8 15.6 0.00 0.00 0.00 42 1014.2
20260903000027 83 93 9.6 15.6 0.00 0.00 0.00 42 1014.2
20260902235526 83 53 10.4 17.4 0.00 0.00 0.00 42 1014.2
20260902235025 82 82 8.7 17.4 0.00 0.00 0.00 43 1014.2
20260902234540 82 77 8.7 12.2 0.00 0.00 0.00 43 1014.2
20260902234027 82 83 8.7 12.2 0.00 0.00 0.00 43 1014.2
20260902233524 82 78 7.8 13.9 0.00 0.00 0.00 43 1014.4
20260902233024 82 51 5.2 13.9 0.00 0.00 0.00 43 1014.4
20260902232527 82 78 7.0 14.8 0.00 0.00 0.00 43 1014.4
20260902232023 83 81 8.7 14.8 0.00 0.00 0.00 42 1014.4
20260902231532 83 96 7.8 14.8 0.00 0.00 0.00 42 1014.3
20260902231024 83 98 7.0 14.8 0.00 0.00 0.00 42 1014.3
20260902230522 83 81 8.7 13.9 0.00 0.00 0.00 42 1014.4
20260902230022 83 88 8.7 16.5 0.00 0.00 0.00 42 1014.4
20260902225521 83 69 7.8 16.5 0.00 0.00 0.00 42 1014.5
20260902225021 83 89 10.4 15.6 0.00 0.00 0.00 42 1014.4
20260902224519 83 88 10.4 15.6 0.00 0.00 0.00 42 1014.5
20260902224018 82 69 9.6 13.9 0.00 0.00 0.00 42 1014.5
20260902223517 82 94 7.8 13.0 0.00 0.00 0.00 43 1014.5
20260902223016 81 105 7.0 13.0 0.00 0.00 0.00 44 1014.6
20260902222515 80 113 2.6 4.3 0.00 0.00 0.00 44 1014.7
20260902222015 80 65 1.7 5.2 0.00 0.00 0.00 45 1014.8
20260902221517 80 71 3.5 5.2 0.00 0.00 0.00 44 1014.8
20260902221012 80 61 2.6 5.2 0.00 0.00 0.00 44 1014.9
20260902220511 81 49 2.6 5.2 0.00 0.00 0.00 43 1015.0
20260902220020 81 42 1.7 4.3 0.00 0.00 0.00 43 1014.9
20260902215509 81 28 1.7 7.0 0.00 0.00 0.00 42 1015.0
20260902215011 82 59 2.6 7.0 0.00 0.00 0.00 42 1015.0
20260902214509 82 55 2.6 6.1 0.00 0.00 0.00 42 1015.0
20260902214006 83 30 2.6 7.8 0.00 0.00 0.00 41 1015.0
20260902213504 83 77 2.6 9.6 0.00 0.00 0.00 41 1015.0
20260902213002 83 72 3.5 9.6 0.00 0.00 0.00 41 1015.0
20260902212502 82 85 5.2 7.8 0.00 0.00 0.00 41 1015.0
20260902212003 82 87 4.3 7.8 0.00 0.00 0.00 42 1015.1
20260902211603 82 75 5.2 7.8 0.00 0.00 0.00 42 1015.1
20260902211101 81 47 3.5 7.0 0.00 0.00 0.00 43 1015.1
20260902210604 81 17 2.6 3.5 0.00 0.00 0.00 43 1015.2
20260902210058 82 350 2.6 3.5 0.00 0.00 0.00 42 1015.2
20260902205557 82 360 1.7 4.3 0.00 0.00 0.00 42 1015.2
20260902205101 83 74 0.0 5.2 0.00 0.00 0.00 41 1015.2
20260902204557 83 71 1.7 7.0 0.00 0.00 0.00 41 1015.2
20260902204056 83 96 4.3 7.0 0.00 0.00 0.00 41 1015.1
20260902203556 83 69 1.7 3.5 0.00 0.00 0.00 41 1015.2
20260902203056 83 33 0.9 2.6 0.00 0.00 0.00 41 1015.2
20260902202556 83 19 0.0 4.3 0.00 0.00 0.00 41 1015.2
20260902202056 83 18 1.7 4.3 0.00 0.00 0.00 41 1015.3
20260902201556 83 355 2.6 4.3 0.00 0.00 0.00 41 1015.3
20260902201055 83 355 2.6 4.3 0.00 0.00 0.00 41 1015.3
20260902200555 83 29 1.7 4.3 0.00 0.00 0.00 41 1015.3
20260902200055 83 17 1.7 3.5 0.00 0.00 0.00 40 1015.4
20260902195558 84 360 0.0 2.6 0.00 0.00 0.00 40 1015.4
20260902195055 83 360 1.7 3.5 0.00 0.00 0.00 40 1015.3
20260902194555 83 355 1.7 3.5 0.00 0.00 0.00 40 1015.4
20260902194054 83 355 0.0 2.6 0.00 0.00 0.00 40 1015.5
20260902193554 83 355 0.0 2.6 0.00 0.00 0.00 40 1015.5
20260902193055 83 355 0.9 2.6 0.00 0.00 0.00 40 1015.5
20260902192553 84 331 1.7 2.6 0.00 0.00 0.00 40 1015.5
20260902192056 84 321 0.9 2.6 0.00 0.00 0.00 39 1015.5
20260902191554 84 328 0.0 0.9 0.00 0.00 0.00 39 1015.4
20260902191053 84 331 0.0 2.6 0.00 0.00 0.00 39 1015.5
20260902190553 84 331 0.0 2.6 0.00 0.00 0.00 39 1015.4
20260902190053 84 323 0.9 2.6 0.00 0.00 0.00 39 1015.3
20260902185553 84 342 0.0 2.6 0.00 0.00 0.00 39 1015.4
20260902185057 84 340 0.0 2.6 0.00 0.00 0.00 39 1015.4
20260902184552 85 309 0.9 7.8 0.00 0.00 0.00 38 1015.3
20260902184052 85 55 0.9 10.4 0.00 0.00 0.00 38 1015.3
20260902183552 85 77 3.5 8.7 0.00 0.00 0.00 38 1015.3
20260902183052 85 88 2.6 7.0 0.00 0.00 0.00 38 1015.2
20260902182551 85 74 1.7 7.8 0.00 0.00 0.00 38 1015.1
20260902182051 85 88 3.5 7.0 0.00 0.00 0.00 38 1015.1
20260902181556 85 103 3.5 7.0 0.00 0.00 0.00 38 1015.1
20260902181050 85 90 3.5 9.6 0.00 0.00 0.00 37 1015.0
20260902180550 85 117 4.3 9.6 0.00 0.00 0.00 37 1015.1
20260902180056 85 145 4.3 7.8 0.00 0.00 0.00 37 1015.1
20260902175551 86 105 1.7 6.1 0.00 0.00 0.00 37 1015.0
20260902175050 86 111 1.7 7.8 0.00 0.00 0.00 37 1015.1
20260902174558 86 113 3.5 8.7 0.00 0.00 0.00 37 1015.0
20260902174049 86 100 2.6 8.7 0.00 0.00 0.00 37 1015.0
20260902173551 86 97 3.5 7.8 0.00 0.00 0.00 37 1015.0
20260902173050 86 116 3.5 7.8 0.00 0.00 0.00 36 1015.0
20260902172549 87 53 4.3 7.8 0.00 0.00 0.00 36 1015.0
20260902172051 87 95 3.5 6.1 0.00 0.00 0.00 36 1015.0
20260902171559 87 109 1.7 7.8 0.00 0.00 0.00 36 1015.0
20260902171053 87 65 3.5 7.8 0.00 0.00 0.00 36 1014.9
20260902170548 87 65 2.6 8.7 0.00 0.00 0.00 36 1014.9
20260902170048 88 66 3.5 8.7 0.00 0.00 0.00 35 1014.8
20260902165548 88 28 1.7 9.6 0.00 0.00 0.00 35 1014.8
20260902165048 88 84 4.3 9.6 0.00 0.00 0.00 35 1014.8
20260902164547 88 119 2.6 11.3 0.00 0.00 0.00 35 1014.9
20260902164046 89 30 6.1 13.0 0.00 0.00 0.00 35 1015.0
20260902163547 89 40 7.0 13.0 0.00 0.00 0.00 35 1015.0
20260902163047 89 30 4.3 11.3 0.00 0.00 0.00 35 1015.1
20260902162549 90 29 6.1 11.3 0.00 0.00 0.00 34 1015.1
20260902162047 90 21 3.5 11.3 0.00 0.00 0.00 34 1015.1
20260902161556 90 71 5.2 13.0 0.00 0.00 0.00 34 1015.1
20260902161045 91 49 7.0 13.0 0.00 0.00 0.00 34 1015.1
20260902160545 91 42 4.3 13.0 0.00 0.00 0.00 34 1015.2